SWA616 KMCO-MYNN

Flight info

Callsign SWA616
Flight time 1h 10m
Altitude 37000
Route DDANY3 JIPOD DCT JUNIP DCT ZFP BR63V ZQA
Aircraft B737/M-SDE2E3FGHIRWXY/LB1

Departure

Time 2026-05-06 21:58
Airport Orlando International Airport (KMCO)

Arrival

Time 2026-05-06 23:08
Airport Lynden Pindling International Airport (MYNN)
Time Latitude Longitude Altitude Speed Heading
2026-05-06 21:33 28.42624 -81.29998 102 ft 0 kts 240°
2026-05-06 21:52 28.42632 -81.29981 100 ft 4 kts 245°
2026-05-06 21:52 28.42642 -81.29953 102 ft 4 kts 247°
2026-05-06 21:52 28.42654 -81.29930 101 ft 4 kts 197°
2026-05-06 21:53 28.42660 -81.29928 102 ft 1 kts 180°
2026-05-06 21:55 28.42639 -81.29921 101 ft 10 kts 150°
2026-05-06 21:55 28.42600 -81.29828 102 ft 16 kts 73°
2026-05-06 21:55 28.42699 -81.29797 102 ft 17 kts 359°
2026-05-06 21:55 28.42867 -81.29799 102 ft 30 kts 359°
2026-05-06 21:56 28.43095 -81.29801 102 ft 33 kts 359°
2026-05-06 21:56 28.43316 -81.29804 102 ft 30 kts 359°
2026-05-06 21:56 28.43464 -81.29805 103 ft 19 kts
2026-05-06 21:56 28.43550 -81.29733 102 ft 18 kts 89°
2026-05-06 21:57 28.43539 -81.29595 103 ft 17 kts 131°
2026-05-06 21:57 28.43443 -81.29585 105 ft 36 kts 180°
2026-05-06 21:57 28.42950 -81.29581 105 ft 104 kts 179°
2026-05-06 21:57 28.42030 -81.29570 107 ft 157 kts 178°
2026-05-06 21:58 28.40852 -81.29538 448 ft 177 kts 179°
2026-05-06 21:58 28.39574 -81.29531 1052 ft 186 kts 179°
2026-05-06 21:58 28.38345 -81.29498 2064 ft 166 kts 177°
2026-05-06 21:58 28.37154 -81.29158 2358 ft 199 kts 150°
2026-05-06 21:59 28.36035 -81.28092 2675 ft 216 kts 137°
2026-05-06 21:59 28.34886 -81.26974 3058 ft 228 kts 143°
2026-05-06 21:59 28.33620 -81.25734 3273 ft 253 kts 136°
2026-05-06 21:59 28.32347 -81.24273 3834 ft 265 kts 134°
2026-05-06 22:00 28.31078 -81.22739 4723 ft 267 kts 134°
2026-05-06 22:00 28.29812 -81.21178 5529 ft 269 kts 133°
2026-05-06 22:00 28.28559 -81.19588 6374 ft 273 kts 131°
2026-05-06 22:00 28.27294 -81.17938 7096 ft 281 kts 131°
2026-05-06 22:01 28.26000 -81.16255 7894 ft 286 kts 131°
2026-05-06 22:01 28.24684 -81.14544 8726 ft 289 kts 129°
2026-05-06 22:01 28.23384 -81.12802 9343 ft 290 kts 129°
2026-05-06 22:01 28.22070 -81.11031 10128 ft 298 kts 129°
2026-05-06 22:02 28.20664 -81.09215 10522 ft 320 kts 131°
2026-05-06 22:02 28.19123 -81.07296 10717 ft 346 kts 131°
2026-05-06 22:02 28.17737 -81.05022 11163 ft 358 kts 112°
2026-05-06 22:02 28.17015 -81.02305 11875 ft 361 kts 99°
2026-05-06 22:03 28.16820 -80.99469 12633 ft 363 kts 84°
2026-05-06 22:03 28.17127 -80.96615 13409 ft 367 kts 79°
2026-05-06 22:03 28.17543 -80.93749 14123 ft 372 kts 78°
2026-05-06 22:03 28.17981 -80.90841 14757 ft 378 kts 78°
2026-05-06 22:04 28.18411 -80.87880 15432 ft 382 kts 78°
2026-05-06 22:04 28.18828 -80.84884 16050 ft 389 kts 79°
2026-05-06 22:04 28.19234 -80.81869 16669 ft 394 kts 79°
2026-05-06 22:04 28.19648 -80.78741 17306 ft 400 kts 79°
2026-05-06 22:05 28.20058 -80.75641 17889 ft 405 kts 79°
2026-05-06 22:05 28.20476 -80.72462 18476 ft 411 kts 79°
2026-05-06 22:05 28.20745 -80.69209 18966 ft 419 kts 88°
2026-05-06 22:05 28.20500 -80.65892 19462 ft 426 kts 98°
2026-05-06 22:06 28.19752 -80.62621 19957 ft 433 kts 108°
2026-05-06 22:06 28.18697 -80.59413 20568 ft 434 kts 110°
2026-05-06 22:06 28.17587 -80.56214 20961 ft 436 kts 111°
2026-05-06 22:06 28.16489 -80.53046 21063 ft 443 kts 110°
2026-05-06 22:07 28.15365 -80.49743 21072 ft 457 kts 110°
2026-05-06 22:07 28.14223 -80.46331 21074 ft 468 kts 109°
2026-05-06 22:07 28.13068 -80.42846 21071 ft 476 kts 109°
2026-05-06 22:07 28.11908 -80.39346 21059 ft 473 kts 109°
2026-05-06 22:08 28.10668 -80.35898 21055 ft 476 kts 116°
2026-05-06 22:08 28.08862 -80.32734 21069 ft 483 kts 129°
2026-05-06 22:08 28.06544 -80.29981 21066 ft 482 kts 140°
2026-05-06 22:08 28.03852 -80.27756 21071 ft 478 kts 149°
2026-05-06 22:09 28.01045 -80.25747 21056 ft 478 kts 149°
2026-05-06 22:09 27.98261 -80.23780 21064 ft 477 kts 149°
2026-05-06 22:09 27.95450 -80.21786 21070 ft 477 kts 149°
2026-05-06 22:09 27.92642 -80.19776 21070 ft 478 kts 149°
2026-05-06 22:10 27.89840 -80.17753 21071 ft 478 kts 149°
2026-05-06 22:10 27.87039 -80.15720 21075 ft 479 kts 148°
2026-05-06 22:10 27.84236 -80.13679 21075 ft 480 kts 148°
2026-05-06 22:10 27.81430 -80.11635 21076 ft 480 kts 148°
2026-05-06 22:11 27.78616 -80.09585 21070 ft 481 kts 148°
2026-05-06 22:11 27.75844 -80.07567 21068 ft 481 kts 148°
2026-05-06 22:11 27.73032 -80.05523 21066 ft 481 kts 148°
2026-05-06 22:11 27.70217 -80.03478 21062 ft 481 kts 148°
2026-05-06 22:12 27.67403 -80.01436 21054 ft 481 kts 148°
2026-05-06 22:12 27.64590 -79.99396 21057 ft 480 kts 148°
2026-05-06 22:12 27.61777 -79.97358 21059 ft 480 kts 148°
2026-05-06 22:12 27.58972 -79.95327 21060 ft 480 kts 148°
2026-05-06 22:13 27.56196 -79.93318 21064 ft 480 kts 148°
2026-05-06 22:13 27.53389 -79.91287 21062 ft 480 kts 148°
2026-05-06 22:13 27.50581 -79.89257 21062 ft 480 kts 148°
2026-05-06 22:13 27.47775 -79.87230 21063 ft 480 kts 148°
2026-05-06 22:14 27.44960 -79.85197 21066 ft 480 kts 148°
2026-05-06 22:14 27.42153 -79.83171 21065 ft 480 kts 148°
2026-05-06 22:14 27.39339 -79.81141 21065 ft 480 kts 148°
2026-05-06 22:14 27.36525 -79.79113 21067 ft 480 kts 148°
2026-05-06 22:15 27.33715 -79.77088 21060 ft 481 kts 148°
2026-05-06 22:15 27.30898 -79.75059 21063 ft 481 kts 148°
2026-05-06 22:15 27.28113 -79.73055 21063 ft 481 kts 148°
2026-05-06 22:15 27.25395 -79.70862 21057 ft 482 kts 140°
2026-05-06 22:16 27.22983 -79.68251 21065 ft 482 kts 130°
2026-05-06 22:16 27.20908 -79.65291 21072 ft 482 kts 126°
2026-05-06 22:16 27.18900 -79.62280 21065 ft 482 kts 126°
2026-05-06 22:16 27.16899 -79.59262 21062 ft 482 kts 126°
2026-05-06 22:17 27.14890 -79.56246 21066 ft 482 kts 126°
2026-05-06 22:17 27.12874 -79.53244 21067 ft 482 kts 126°
2026-05-06 22:17 27.10875 -79.50290 21068 ft 482 kts 127°
2026-05-06 22:17 27.08845 -79.47306 21068 ft 481 kts 127°
2026-05-06 22:18 27.06808 -79.44321 21057 ft 481 kts 127°
2026-05-06 22:18 27.04775 -79.41348 21067 ft 481 kts 126°
2026-05-06 22:18 27.02738 -79.38371 21069 ft 480 kts 126°
2026-05-06 22:18 27.00706 -79.35402 21072 ft 480 kts 126°
2026-05-06 22:19 26.98673 -79.32433 21072 ft 480 kts 126°
2026-05-06 22:19 26.96635 -79.29457 21071 ft 480 kts 126°
2026-05-06 22:19 26.94604 -79.26493 21071 ft 480 kts 126°
2026-05-06 22:19 26.92568 -79.23523 21071 ft 480 kts 126°
2026-05-06 22:20 26.90554 -79.20589 21071 ft 481 kts 126°
2026-05-06 22:20 26.88519 -79.17624 21071 ft 481 kts 126°
2026-05-06 22:20 26.86481 -79.14658 21070 ft 481 kts 126°
2026-05-06 22:20 26.84443 -79.11694 21071 ft 481 kts 126°
2026-05-06 22:21 26.82402 -79.08728 21071 ft 481 kts 126°
2026-05-06 22:21 26.80359 -79.05760 21075 ft 481 kts 126°
2026-05-06 22:21 26.78318 -79.02798 21074 ft 481 kts 126°
2026-05-06 22:21 26.76275 -78.99834 21071 ft 481 kts 126°
2026-05-06 22:22 26.74231 -78.96870 21071 ft 481 kts 126°
2026-05-06 22:22 26.72187 -78.93910 21064 ft 480 kts 126°
2026-05-06 22:22 26.70171 -78.90991 21068 ft 480 kts 126°
2026-05-06 22:22 26.68134 -78.88042 21070 ft 480 kts 126°
2026-05-06 22:23 26.66092 -78.85090 21068 ft 479 kts 126°
2026-05-06 22:23 26.64054 -78.82145 21066 ft 479 kts 126°
2026-05-06 22:23 26.62013 -78.79197 21065 ft 479 kts 126°
2026-05-06 22:23 26.59971 -78.76250 21065 ft 479 kts 126°
2026-05-06 22:24 26.57928 -78.73307 21083 ft 479 kts 126°
2026-05-06 22:24 26.55885 -78.70366 21084 ft 479 kts 127°
2026-05-06 22:24 26.53834 -78.67436 21090 ft 479 kts 127°
2026-05-06 22:24 26.51768 -78.64517 21087 ft 479 kts 127°
2026-05-06 22:25 26.49703 -78.61598 21082 ft 479 kts 127°
2026-05-06 22:25 26.47664 -78.58713 21079 ft 479 kts 127°
2026-05-06 22:25 26.45599 -78.55790 21078 ft 479 kts 127°
2026-05-06 22:25 26.43537 -78.52877 21077 ft 479 kts 127°
2026-05-06 22:26 26.41460 -78.49965 21076 ft 479 kts 127°
2026-05-06 22:26 26.39384 -78.47062 21070 ft 479 kts 127°
2026-05-06 22:26 26.37307 -78.44159 21071 ft 478 kts 127°
2026-05-06 22:26 26.35239 -78.41262 21070 ft 478 kts 127°
2026-05-06 22:27 26.33169 -78.38361 21065 ft 478 kts 127°
2026-05-06 22:27 26.31129 -78.35501 21065 ft 477 kts 127°
2026-05-06 22:27 26.29067 -78.32610 21066 ft 477 kts 127°
2026-05-06 22:27 26.26999 -78.29711 21066 ft 477 kts 127°
2026-05-06 22:28 26.24934 -78.26817 21066 ft 477 kts 127°
2026-05-06 22:28 26.22864 -78.23923 21063 ft 477 kts 127°
2026-05-06 22:28 26.20796 -78.21037 21063 ft 478 kts 127°
2026-05-06 22:28 26.18717 -78.18140 21063 ft 478 kts 127°
2026-05-06 22:29 26.16641 -78.15254 21065 ft 478 kts 127°
2026-05-06 22:29 26.14569 -78.12372 21065 ft 478 kts 127°
2026-05-06 22:29 26.12521 -78.09522 21066 ft 478 kts 127°
2026-05-06 22:29 26.10444 -78.06631 21066 ft 478 kts 127°
2026-05-06 22:30 26.08382 -78.03760 20895 ft 469 kts 127°
2026-05-06 22:30 26.06376 -78.00972 20645 ft 456 kts 127°
2026-05-06 22:30 26.04422 -77.98259 20397 ft 444 kts 127°
2026-05-06 22:30 26.02510 -77.95604 20166 ft 437 kts 127°
2026-05-06 22:31 26.00615 -77.92968 19942 ft 437 kts 127°
2026-05-06 22:31 25.98718 -77.90326 19719 ft 438 kts 127°
2026-05-06 22:31 25.96846 -77.87718 19497 ft 438 kts 127°
2026-05-06 22:31 25.94941 -77.85073 19269 ft 437 kts 127°
2026-05-06 22:32 25.93043 -77.82444 19038 ft 436 kts 127°
2026-05-06 22:32 25.91149 -77.79825 18832 ft 434 kts 127°
2026-05-06 22:32 25.89262 -77.77214 18602 ft 432 kts 126°
2026-05-06 22:32 25.87397 -77.74614 18073 ft 431 kts 126°
2026-05-06 22:33 25.85533 -77.72033 17412 ft 426 kts 126°
2026-05-06 22:33 25.83685 -77.69483 16780 ft 420 kts 126°
2026-05-06 22:33 25.81877 -77.66993 16493 ft 406 kts 126°
2026-05-06 22:33 25.80167 -77.64639 16346 ft 389 kts 126°
2026-05-06 22:34 25.78508 -77.62355 16300 ft 372 kts 126°
2026-05-06 22:34 25.76924 -77.60173 16285 ft 354 kts 126°
2026-05-06 22:34 25.75416 -77.58093 16280 ft 338 kts 126°
2026-05-06 22:34 25.73977 -77.56110 16284 ft 322 kts 126°
2026-05-06 22:35 25.72603 -77.54217 16223 ft 309 kts 125°
2026-05-06 22:35 25.71267 -77.52378 16013 ft 303 kts 126°
2026-05-06 22:35 25.69943 -77.50564 15650 ft 303 kts 128°
2026-05-06 22:35 25.68288 -77.49091 15191 ft 311 kts 153°
2026-05-06 22:36 25.66226 -77.48455 14724 ft 316 kts 174°
2026-05-06 22:36 25.64015 -77.48304 14205 ft 322 kts 178°
2026-05-06 22:36 25.61732 -77.48215 13313 ft 337 kts 178°
2026-05-06 22:36 25.59325 -77.48116 12420 ft 351 kts 177°
2026-05-06 22:37 25.56909 -77.47992 12153 ft 341 kts 177°
2026-05-06 22:37 25.54585 -77.47857 12054 ft 327 kts 177°
2026-05-06 22:37 25.52361 -77.47724 11956 ft 314 kts 176°
2026-05-06 22:37 25.50214 -77.47593 11773 ft 305 kts 176°
2026-05-06 22:38 25.48134 -77.47464 11441 ft 303 kts 176°
2026-05-06 22:38 25.46034 -77.47335 11080 ft 301 kts 176°
2026-05-06 22:38 25.43950 -77.47207 10744 ft 299 kts 177°
2026-05-06 22:38 25.41879 -77.47079 10422 ft 297 kts 177°
2026-05-06 22:39 25.39846 -77.46954 10126 ft 293 kts 176°
2026-05-06 22:39 25.37819 -77.46830 9812 ft 290 kts 177°
2026-05-06 22:39 25.35810 -77.46707 9444 ft 289 kts 177°
2026-05-06 22:39 25.33813 -77.46584 9084 ft 287 kts 177°
2026-05-06 22:40 25.31851 -77.46464 8765 ft 284 kts 177°
2026-05-06 22:40 25.29884 -77.46344 8422 ft 282 kts 178°
2026-05-06 22:40 25.27931 -77.46305 8066 ft 280 kts 189°
2026-05-06 22:40 25.26153 -77.47077 7738 ft 274 kts 218°
2026-05-06 22:41 25.24060 -77.50433 7113 ft 266 kts 247°
2026-05-06 22:41 25.23322 -77.52297 6807 ft 264 kts 247°
2026-05-06 22:41 25.22688 -77.54129 6712 ft 247 kts 261°
2026-05-06 22:42 25.22215 -77.55897 6476 ft 236 kts 245°
2026-05-06 22:42 25.21468 -77.57432 6183 ft 226 kts 245°
2026-05-06 22:42 25.20773 -77.58982 5727 ft 223 kts 246°
2026-05-06 22:42 25.19861 -77.60320 5216 ft 219 kts 218°
2026-05-06 22:43 25.18473 -77.60875 4787 ft 214 kts 185°
2026-05-06 22:43 25.17044 -77.60541 4321 ft 210 kts 155°
2026-05-06 22:43 25.15918 -77.59557 3881 ft 204 kts 139°
2026-05-06 22:43 25.14912 -77.58459 3380 ft 203 kts 137°
2026-05-06 22:44 25.13937 -77.57370 2832 ft 197 kts 137°
2026-05-06 22:44 25.12979 -77.56306 2284 ft 193 kts 137°
2026-05-06 22:44 25.12060 -77.55279 1964 ft 181 kts 136°
2026-05-06 22:44 25.11204 -77.54323 1712 ft 175 kts 136°
2026-05-06 22:45 25.10376 -77.53395 1466 ft 162 kts 136°
2026-05-06 22:45 25.09628 -77.52561 1298 ft 146 kts 138°
2026-05-06 22:45 25.08924 -77.51795 1126 ft 143 kts 142°
2026-05-06 22:45 25.08211 -77.51030 925 ft 141 kts 136°
2026-05-06 22:46 25.07475 -77.50286 613 ft 147 kts 142°
2026-05-06 22:46 25.06783 -77.49489 371 ft 141 kts 135°
2026-05-06 22:46 25.06149 -77.48652 233 ft 145 kts 139°
2026-05-06 22:46 25.05425 -77.47859 109 ft 148 kts 140°
2026-05-06 22:47 25.04710 -77.47066 84 ft 157 kts 140°
2026-05-06 22:47 25.04190 -77.46498 667 ft 154 kts 137°
2026-05-06 22:47 25.03670 -77.45947 1338 ft 164 kts 141°
2026-05-06 22:48 25.02707 -77.45098 1703 ft 173 kts 159°
2026-05-06 22:48 25.01508 -77.44883 1448 ft 180 kts 189°
2026-05-06 22:48 25.01158 -77.44943 1403 ft 178 kts 199°
2026-05-06 22:49 25.00460 -77.45269 1166 ft 182 kts 216°
2026-05-06 22:49 24.99494 -77.46165 931 ft 175 kts 233°
2026-05-06 22:50 24.99045 -77.47360 829 ft 181 kts 269°
2026-05-06 22:50 24.98928 -77.48785 1071 ft 197 kts 261°
2026-05-06 22:50 24.98483 -77.50222 1165 ft 194 kts 251°
2026-05-06 22:50 24.97994 -77.51597 1343 ft 194 kts 252°
2026-05-06 22:51 24.97616 -77.53047 1198 ft 199 kts 260°
2026-05-06 22:51 24.97556 -77.53320 1198 ft 197 kts 262°
2026-05-06 22:51 24.97456 -77.54373 1040 ft 198 kts 275°
2026-05-06 22:53 24.97485 -77.54870 973 ft 195 kts 283°
2026-05-06 22:53 24.98027 -77.56126 1000 ft 185 kts 334°
2026-05-06 22:53 24.99209 -77.56643 1253 ft 185 kts 344°
2026-05-06 22:53 25.00304 -77.57415 1532 ft 186 kts 322°
2026-05-06 22:54 25.01213 -77.58437 2162 ft 188 kts 315°
2026-05-06 22:54 25.02141 -77.59432 2881 ft 188 kts 320°
2026-05-06 22:54 25.02975 -77.60529 3151 ft 191 kts 315°
2026-05-06 22:54 25.03933 -77.61584 3071 ft 195 kts 317°
2026-05-06 22:55 25.04969 -77.62549 2930 ft 196 kts 329°
2026-05-06 22:55 25.05984 -77.63510 2860 ft 188 kts 314°
2026-05-06 22:55 25.06900 -77.64545 2941 ft 191 kts 315°
2026-05-06 22:55 25.07839 -77.65592 2993 ft 193 kts 315°
2026-05-06 22:56 25.08787 -77.66647 3086 ft 192 kts 316°
2026-05-06 22:56 25.09872 -77.67493 2986 ft 195 kts 343°
2026-05-06 22:56 25.11182 -77.67472 2849 ft 193 kts 17°
2026-05-06 22:56 25.12330 -77.66755 2692 ft 192 kts 47°
2026-05-06 22:57 25.13096 -77.65585 2529 ft 185 kts 59°
2026-05-06 22:57 25.13727 -77.64355 2372 ft 186 kts 77°
2026-05-06 22:57 25.13938 -77.62926 2222 ft 190 kts 84°
2026-05-06 22:57 25.14144 -77.61481 2102 ft 191 kts 82°
2026-05-06 22:58 25.14344 -77.60044 2033 ft 188 kts 83°
2026-05-06 22:58 25.14471 -77.58619 2023 ft 187 kts 101°
2026-05-06 22:58 25.13875 -77.57442 2015 ft 170 kts 132°
2026-05-06 22:58 25.13149 -77.56535 2005 ft 149 kts 135°
2026-05-06 22:59 25.12443 -77.55742 1992 ft 145 kts 139°
2026-05-06 22:59 25.11743 -77.54922 1855 ft 146 kts 135°
2026-05-06 22:59 25.11027 -77.54115 1665 ft 146 kts 139°
2026-05-06 22:59 25.10341 -77.53305 1467 ft 143 kts 126°
2026-05-06 23:00 25.09743 -77.52431 1292 ft 143 kts 128°
2026-05-06 23:00 25.09005 -77.51690 1108 ft 144 kts 138°
2026-05-06 23:00 25.08241 -77.50970 937 ft 145 kts 135°
2026-05-06 23:00 25.07535 -77.50204 757 ft 143 kts 131°
2026-05-06 23:01 25.06858 -77.49426 529 ft 140 kts 131°
2026-05-06 23:01 25.06152 -77.48662 298 ft 144 kts 129°
2026-05-06 23:01 25.05474 -77.47885 126 ft 139 kts 133°
2026-05-06 23:01 25.04777 -77.47118 31 ft 141 kts 132°
2026-05-06 23:02 25.04095 -77.46365 153 ft 154 kts 133°
2026-05-06 23:02 25.03370 -77.45438 952 ft 159 kts 116°
2026-05-06 23:02 25.03189 -77.44245 1857 ft 172 kts 77°
2026-05-06 23:02 25.03819 -77.43086 2110 ft 183 kts 40°
2026-05-06 23:03 25.04951 -77.42522 2145 ft 178 kts
2026-05-06 23:03 25.06158 -77.42681 2062 ft 179 kts 341°
2026-05-06 23:03 25.07258 -77.43299 2039 ft 177 kts 330°
2026-05-06 23:03 25.08292 -77.44039 2008 ft 176 kts 327°
2026-05-06 23:04 25.09322 -77.44773 1996 ft 180 kts 336°
2026-05-06 23:04 25.10439 -77.45370 1821 ft 175 kts 345°
2026-05-06 23:04 25.11536 -77.45937 1451 ft 171 kts 337°
2026-05-06 23:04 25.12479 -77.46674 1041 ft 168 kts 306°
2026-05-06 23:05 25.12789 -77.47863 764 ft 159 kts 272°
2026-05-06 23:05 25.12445 -77.48939 735 ft 148 kts 238°
2026-05-06 23:05 25.11887 -77.49885 817 ft 155 kts 239°
2026-05-06 23:05 25.11217 -77.50804 832 ft 151 kts 235°
2026-05-06 23:06 25.10464 -77.51601 739 ft 152 kts 228°
2026-05-06 23:06 25.09540 -77.52108 746 ft 145 kts 188°
2026-05-06 23:06 25.08580 -77.51857 960 ft 145 kts 141°
2026-05-06 23:06 25.07979 -77.50968 916 ft 147 kts 124°
2026-05-06 23:07 25.07549 -77.50266 861 ft 145 kts 130°
2026-05-06 23:07 25.07093 -77.49713 646 ft 153 kts 133°
2026-05-06 23:07 25.06337 -77.48822 416 ft 161 kts 134°
2026-05-06 23:08 25.05539 -77.47976 158 ft 159 kts 137°
2026-05-06 23:08 25.04803 -77.47157 20 ft 138 kts 135°
2026-05-06 23:08 25.04240 -77.46522 19 ft 94 kts 135°
2026-05-06 23:08 25.03892 -77.46130 18 ft 49 kts 135°
2026-05-06 23:09 25.03760 -77.45944 19 ft 12 kts 75°
2026-05-06 23:09 25.03815 -77.45880 18 ft 11 kts 45°
2026-05-06 23:09 25.03858 -77.45846 16 ft 2 kts
2026-05-06 23:09 25.03896 -77.45883 18 ft 13 kts 312°
2026-05-06 23:10 25.03996 -77.45996 17 ft 28 kts 315°
2026-05-06 23:10 25.04161 -77.46180 17 ft 36 kts 315°
2026-05-06 23:10 25.04336 -77.46373 16 ft 34 kts 315°
2026-05-06 23:10 25.04495 -77.46552 16 ft 32 kts 313°
2026-05-06 23:11 25.04643 -77.46716 19 ft 29 kts 317°
2026-05-06 23:11 25.04784 -77.46867 17 ft 27 kts 316°
2026-05-06 23:11 25.04888 -77.46951 17 ft 17 kts 15°
2026-05-06 23:11 25.04966 -77.46899 16 ft 9 kts 48°
2026-05-06 23:12 25.05018 -77.46884 16 ft 0 kts 353°
2026-05-06 23:12 25.05021 -77.46885 16 ft 3 kts 353°
2026-05-06 23:13 25.05034 -77.46887 16 ft 0 kts 352°
2026-05-06 23:13 25.05039 -77.46887 16 ft 0 kts 354°